WetterOnline ( https://www.wetteronline.ch )

Wetter aktuell Brünn

Aktuelles Wetter: Brünn - Turany (246m)

6-stündlich | Neueste Meldungen
Ortszeit Temperatur Wetter
Di, 23.04. 14:00 11.4° C leichter Regen
Di, 23.04. 8:00 12.1° C leicht bewölkt
Di, 23.04. 2:00 10.5° C wolkig
Mo, 22.04. 20:00 13.4° C leicht bewölkt
Mo, 22.04. 14:00 17.3° C fast wolkenlos
Mo, 22.04. 8:00 9.3° C fast wolkenlos
Mo, 22.04. 2:00 9.3° C wolkenlos
So, 21.04. 20:00 16.8° C fast wolkenlos
Ortszeit Temperatur Wetter
Di, 23.04. 19:30 9° C leichter Regen
Di, 23.04. 19:00 9.5° C leichter Regen
Di, 23.04. 18:48 10° C leichter Regen
Di, 23.04. 18:30 9° C bedeckt
Di, 23.04. 18:00 9.3° C leichter Regen
Di, 23.04. 17:30 9° C leichter Regen
Di, 23.04. 17:00 9.2° C leichter Regen
Di, 23.04. 16:30 9° C leichter Regen
Di, 23.04. 16:00 9.4° C leichter Regen
Ortszeit Relative Feuchte Sichtweite
Di, 23.04. 14:00 70% 20 km
Di, 23.04. 8:00 62% 35 km
Di, 23.04. 2:00 61% 40 km
Mo, 22.04. 20:00 52% 40 km
Mo, 22.04. 14:00 36% 40 km
Mo, 22.04. 8:00 64% 40 km
Mo, 22.04. 2:00 55% 40 km
So, 21.04. 20:00 37% 40 km
Ortszeit Relative Feuchte Sichtweite
Di, 23.04. 19:30 93% >10 km
Di, 23.04. 19:00 88% 20 km
Di, 23.04. 18:48 82% >10 km
Di, 23.04. 18:30 93% >10 km
Di, 23.04. 18:00 89% 18 km
Di, 23.04. 17:30 93% >10 km
Di, 23.04. 17:00 90% 9 km
Di, 23.04. 16:30 93% 5.0 km
Di, 23.04. 16:00 87% 8 km
Ortszeit Niederschlagsmenge Niederschlagsart
Di, 23.04. 14:00 0.1 l/m2 in 6 Std. Regen
Di, 23.04. 8:00 0.0 l/m2 in 12 Std. -
Di, 23.04. 2:00 0.0 l/m2 in 6 Std. -
Mo, 22.04. 20:00 0.0 l/m2 in 12 Std. -
Mo, 22.04. 14:00 0.0 l/m2 in 6 Std. -
Mo, 22.04. 8:00 0.0 l/m2 in 12 Std. -
Mo, 22.04. 2:00 0.0 l/m2 in 6 Std. -
So, 21.04. 20:00 0.0 l/m2 in 12 Std. -
Ortszeit Niederschlagsmenge Niederschlagsart
Di, 23.04. 19:30 keine Meldung -
Di, 23.04. 19:00 0.2 l/m2 in 1 Std. Regen
Di, 23.04. 18:48 keine Meldung -
Di, 23.04. 18:30 keine Meldung -
Di, 23.04. 18:00 0.2 l/m2 in 1 Std. Regen
Di, 23.04. 17:30 keine Meldung -
Di, 23.04. 17:00 0.9 l/m2 in 1 Std. Regen
Di, 23.04. 16:30 keine Meldung -
Di, 23.04. 16:00 0.7 l/m2 in 1 Std. Regen
Ortszeit Stärke Spitze Richtung
km/h Bft. km/h Grad Sektor
Di, 23.04. 14:00 40 6 58 130° SO
Di, 23.04. 8:00 22 4 - 110° O
Di, 23.04. 2:00 18 3 - 60° NO
Mo, 22.04. 20:00 18 3 43 80° O
Mo, 22.04. 14:00 32 5 43 60° NO
Mo, 22.04. 8:00 7 2 - 260° W
Mo, 22.04. 2:00 7 2 - 30° NO
So, 21.04. 20:00 14 3 - 60° NO
Ortszeit Stärke Spitze Richtung
km/h Bft. km/h Grad Sektor
Di, 23.04. 19:30 33 5 - 120° SO
Di, 23.04. 19:00 32 5 43 120° SO
Di, 23.04. 18:48 30 5 - 120° SO
Di, 23.04. 18:30 30 5 - 110° O
Di, 23.04. 18:00 25 4 40 110° O
Di, 23.04. 17:30 26 4 - 110° O
Di, 23.04. 17:00 25 4 54 110° O
Di, 23.04. 16:30 28 4 - 110° O
Di, 23.04. 16:00 32 5 50 130° SO
Ortszeit Untergrenze Bedeckung Gattung
total tief tief mittel hoch
Di, 23.04. 14:00 960 m 8/8 8/8 Sc - -
Di, 23.04. 8:00 3000 m 6/8 2/8 - Ac Ci
Di, 23.04. 2:00 2100 m 7/8 7/8 - Ac -
Mo, 22.04. 20:00 1800 m 3/8 3/8 Cu - Ci
Mo, 22.04. 14:00 1800 m 2/8 1/8 Cu - Ci
Mo, 22.04. 8:00 6900 m 1/8 1/8 - - Ci
Mo, 22.04. 2:00 - 0/8 0/8 - - -
So, 21.04. 20:00 3000 m 1/8 1/8 - Ac -
Ortszeit Bedeckungsgrad in Achtel und Wolkenuntergrenze
Di, 23.04. 19:30 8(360m)
Di, 23.04. 19:00 5(390m) 8(480m)
Di, 23.04. 18:48 5-7(390m) 8(480m)
Di, 23.04. 18:30 1-2(330m) 5-7(420m) 8(600m)
Di, 23.04. 18:00 5(360m) 8(480m)
Di, 23.04. 17:30 3-4(300m) 8(480m)
Di, 23.04. 17:00 2(420m) 8(540m)
Di, 23.04. 16:30 5-7(330m) 5-7(630m) 8(1260m)
Di, 23.04. 16:00 2(480m) 8(1380m)
Ortszeit Luftdruck NN (hPa) Tendenz (hPa in 3 Std.)
Di, 23.04. 14:00 1014 + 0,7
Di, 23.04. 8:00 1012 0,0
Di, 23.04. 2:00 1013 - 0,9
Mo, 22.04. 20:00 1014 + 0,6
Mo, 22.04. 14:00 1013 - 0,7
Mo, 22.04. 8:00 1016 - 0,3
Mo, 22.04. 2:00 1018 - 0,9
So, 21.04. 20:00 1018 - 1,2
Ortszeit Luftdruck NN (hPa) Tendenz (hPa in 3 Std.)
Di, 23.04. 19:30 1012 keine Meldung
Di, 23.04. 19:00 1013 - 0,8
Di, 23.04. 18:48 1012 keine Meldung
Di, 23.04. 18:30 1012 keine Meldung
Di, 23.04. 18:00 1013 - 0,5
Di, 23.04. 17:30 1013 keine Meldung
Di, 23.04. 17:00 1014 - 0,1
Di, 23.04. 16:30 1013 keine Meldung
Di, 23.04. 16:00 1014 + 0,6
Ortszeit Schneehöhe (cm)
Di, 23.04. 14:00 -
Di, 23.04. 8:00 0
Di, 23.04. 2:00 -
Mo, 22.04. 20:00 -
Mo, 22.04. 14:00 -
Mo, 22.04. 8:00 0
Mo, 22.04. 2:00 -
So, 21.04. 20:00 -
Ortszeit Schneehöhe (cm)
Di, 23.04. 19:30 -
Di, 23.04. 19:00 -
Di, 23.04. 18:48 -
Di, 23.04. 18:30 -
Di, 23.04. 18:00 -
Di, 23.04. 17:30 -
Di, 23.04. 17:00 -
Di, 23.04. 16:30 -
Di, 23.04. 16:00 -
Link zu dieser Seite / Seite empfehlen

Das Wetter in ...